Weather Roundup
Issued by NWS

Home | Current Version | Previous Version | Text Only | Print | Product List | Glossary On
Versions: 1 2 3 4 5 6 7 8 9 10 11 12 13 14 15 16 17 18 19 20 21 22 23 24 25 26 27 28 29 30 31 32 33 34 35 36 37 38 39 40 41 42 43 44 45 46 47 48 49 50
000
NZUS93 KARX 290710
HRRWXR

CURRENT HOURLY OBSERVATIONS ACROSS
MUCH OF THE UPPER MISSISSIPPI VALLEY
NATIONAL WEATHER SERVICE LA CROSSE WI
200 AM CDT SUN MAR 29 2015


...SOUTHEAST MINNESOTA...


CITY           SKY/WX    TMP DP  RH WIND       PRES   REMARKS
ROCHESTER      CLEAR     31  19  61 S23G30    29.93F WCI  18
ROCHESTER/MAYO FAIR      32  19  59 SE15G26   29.94S WCI  22
WINONA         PTCLDY    36  18  48 S10G20    29.99S WCI  28
AUSTIN         CLEAR     34  21  60 S20G33    29.92F WCI  22
ALBERT LEA     CLEAR     36  21  55 S22G30    29.89F WCI  24
DODGE CENTER   PTCLDY    30  23  74 S21G26    29.90F WCI  17
PRESTON        CLEAR     30  19  63 S18G26    29.96F WCI  18
OWATONNA       CLEAR     34  21  60 S23G33    29.89F WCI  22
FARIBAULT      CLEAR     34  23  64 S18G29    29.88F WCI  23
$$

...ELSEWHERE IN MINNESOTA...


CITY           SKY/WX    TMP DP  RH WIND       PRES   REMARKS
MINNEAPOLIS    PTCLDY    35  21  56 S14       29.87F WCI  26
INTNL FALLS    MOCLDY    37  24  59 S8G22     29.59F WCI  31
DULUTH         CLOUDY    34  17  50 S20       29.74F WCI  23
RED WING       PTCLDY    36  16  44 S9G17     29.93F WCI  29
REDWOOD FALLS  PTCLDY    40  30  67 S23       29.73F WCI  30
MANKATO        PTCLDY    36  23  60 S16G23    29.85F WCI  26
WORTHINGTON    MOCLDY    37  28  70 S26       29.79R WCI  26
FAIRMONT       CLEAR     36  25  64 S23G29    29.81F WCI  24
$$

...SOUTHWEST WISCONSIN...


CITY           SKY/WX    TMP DP  RH WIND       PRES   REMARKS
LA CROSSE      MOCLDY    37  17  44 S20G29    30.01F WCI  27
PRAIRIE DU CHI MOCLDY    34  15  45 SE10G20   30.07F WCI  26
BOSCOBEL       MOCLDY    34  15  46 S7        30.09F WCI  28
LONE ROCK      PTCLDY    34  15  46 S15       30.10F WCI  24
PLATTEVILLE    PTCLDY    32  19  60 SE12      30.10F WCI  23
FORT MC COY    CLOUDY    34  13  41 S9G18     30.03F WCI  27
CAMP DOUGLAS   CLOUDY    33  14  44 S9        30.04F WCI  26
VIROQUA        FAIR      32  16  52 S16G22    30.00F WCI  21
WIS DELLS      PTCLDY    31  14  48 S12       30.07F WCI  22
$$

...ELSEWHERE IN WISCONSIN...


CITY           SKY/WX    TMP DP  RH WIND       PRES   REMARKS
MILWAUKEE      CLEAR     27  10  49 S12       30.19F WCI  17
MADISON        PTCLDY    32  14  47 S9        30.13F WCI  24
GREEN BAY      PTCLDY    28  20  71 S9        30.10F WCI  19
EAU CLAIRE     MOCLDY    35  14  42 S13       29.95F WCI  26
BLACK RVR FLS  FAIR      35  11  37 S9        30.00F WCI  27
MEDFORD        CLOUDY    31  17  56 S15G21    29.95F WCI  20
WAUSAU         MOCLDY    31  15  52 S10G20    29.99F WCI  22
WIS RAPIDS     MOCLDY    32  11  41 S12       30.05F WCI  23
MARSHFIELD     CLOUDY    32  14  47 S15       30.00F WCI  22
RICE LAKE      MOCLDY    33  16  48 S13G18    29.93S WCI  24
$$

...NORTHEAST IOWA...


CITY           SKY/WX    TMP DP  RH WIND       PRES   REMARKS
DECORAH        CLOUDY    32  18  55 S16G24    29.99F WCI  21
MASON CITY     CLEAR     32  23  69 S16       29.94F WCI  21
CHARLES CITY   CLEAR     32  19  59 S20G26    29.99S WCI  20
OELWEIN        PTCLDY    32  19  59 S18       30.03F WCI  20
$$

...ELSEWHERE IN IOWA...


CITY           SKY/WX    TMP DP  RH WIND       PRES   REMARKS
DES MOINES     PTCLDY    38  24  57 S17       30.00F WCI  28
IOWA CITY      PTCLDY    31  20  63 S10       30.13F WCI  22
FORT DODGE     CLEAR     37  23  56 S22G30    29.90F WCI  27
$$

...NORTHERN ILLINOIS...


CITY           SKY/WX    TMP DP  RH WIND       PRES   REMARKS
CHICAGO-OHARE  PTCLDY    25  14  63 S7        30.23F WCI  17
CHICAGO-MIDWAY PTCLDY    28  13  53 S8        30.26F WCI  20
MOLINE         PTCLDY    31  18  58 S13       30.15F WCI  21
ROCKFORD       PTCLDY    29  17  61 S13       30.20F WCI  19
PEORIA         CLEAR     34  18  52 S13       30.22F WCI  25
$$

NOTE: "FAIR" INDICATES FEW OR NO CLOUDS BELOW 12,000 FEET WITH NO
SIGNIFICANT WEATHER AND/OR OBSTRUCTIONS TO VISIBILITY. WIND
SPEEDS ARE IN MILES-PER-HOUR.



USA.gov is the U.S. government's official web portal to all federal, state and local government web resources and services.